Погода в Шумячах

Россия / Смоленская область     53°51′26″N   32°25′25″E
темп.,
°C
ветер,
м/с
пор.,
м/с
влажн.,
%
обл.,
%
осадки,
мм/ч
давл.,
гПа
погр.,
м
19 июня, сб
сб1900:00+15юв26902 0.0 1025118
03:00+13вюв23960 0.0 102656
06:00+15вюв25910 0.0 1025121
09:00+21вюв35660 0.0 1025574
12:00+25юв34515 0.0 10241363
15:00+27ююв34452 0.0 10231580
18:00+26ююв24565 0.0 10221292
21:00+21юв22835 0.0 102217
20 июня, вс
вс2000:00+18юв25940 0.0 1023104
03:00+17юв25971 0.0 1023101
06:00+17вюв25940 0.0 1023167
09:00+23юв35625 0.0 1022657
12:00+26вюв454484 0.0 10211098
15:00+28вюв344140 0.0 10201300
18:00+26вюв3554100 0.0 1019847
21:00+20вюв3879100 0.0 1020161
21 июня, пн
пн2100:00+18вюв2789100 0.0 1019146
03:00+17в2695100 0.0 1019126
06:00+18в388691 0.0 1019236
09:00+23в586210 0.0 1018539
12:00+28в6846100 0.0 1017924
15:00+29вюв5848100 0.0 10161183
18:00+28вюв47558 0.0 1016942
21:00+22вюв4117589 0.0 1017358
22 июня, вт
вт2200:00+20вюв4129193 0.0 1017339
03:00+18вюв3109873 0.0 1017223
06:00+19вюв39905 0.0 1017259
09:00+25юв48615 0.0 1017548
12:00+29юв58455 0.0 10171156
15:00+31ююв594268 0.0 10161507
18:00+29ююв375241 0.0 10161325
21:00+22юв38825 0.0 1017151
23 июня, ср
ср2300:00+20юв38945 0.0 1018157
03:00+19юв36975 0.0 1018115
06:00+21вюв279277 0.0 1018187
09:00+26вюв476422 0.0 1018533
12:00+31юв57445 0.0 10181280
15:00+32юв57405 0.0 10171733
18:00+31вюв47515 0.0 10171115
21:00+25юв412754 0.0 1018431